Regional Weather Roundup
Issued by NWS Newport/Morehead, NC

Current Version | Previous Version | Graphics & Text | Print | Product List | Glossary Off
Versions: 1 2 3 4 5 6 7 8 9 10 11 12 13 14 15 16 17 18 19 20 21 22 23 24 25 26 27 28 29 30 31 32 33 34 35 36 37 38 39 40 41 42 43 44 45 46 47 48 49 50
000 ASUS42 KMHX 241513 RWRMHX WEATHER ROUNDUP FOR EASTERN NORTH CAROLINA NATIONAL WEATHER SERVICE NEWPORT/MOREHEAD CITY NC 1100 AM EDT FRI MAR 24 2017 NOTE: "FAIR" INDICATES FEW OR NO CLOUDS BELOW 12,000 FEET WITH NO SIGNIFICANT WEATHER AND/OR OBSTRUCTIONS TO VISIBILITY NCZ015>017-031-032-045>047-102-103-241600- NORTH COAST CITY SKY/WX TMP DP RH WIND PRES REMARKS EDENTON SUNNY 54 29 38 S6 30.55R ELIZABETH CITY CLOUDY 55 39 54 S7 30.53F KITTY HAWK NOT AVBL MANTEO CLOUDY 51 43 72 SW6 30.54S $$ NCZ045>047-081-094-103-104-241600- CENTRAL COAST CITY SKY/WX TMP DP RH WIND PRES REMARKS FRISCO SUNNY 61 48 62 S7 30.54S $$ NCZ095-097-098-100-101-241600- SOUTHERN COAST CITY SKY/WX TMP DP RH WIND PRES REMARKS BEAUFORT SUNNY 64 47 53 S8 30.53S CEDAR ISLAND NOT AVBL JACKSONVILLE SUNNY 57 45 64 E3 30.53S PINEY ISLAND SUNNY N/A N/A N/A E6 30.53 WILMINGTON SUNNY 63 48 58 E6 30.52F $$ NCZ011>013-027>030-043-044-078>080-089-090>093-098-241600- COASTAL PLAIN CITY SKY/WX TMP DP RH WIND PRES REMARKS AHOSKIE N/A 53 36 52 S6 30.52F CLINTON SUNNY 60 46 60 E5 30.52F ELIZABETHTOWN SUNNY 61 47 60 SE6 30.51F GOLDSBORO SUNNY 57 39 51 SW3 30.51S GREENVILLE SUNNY 59 36 41 SW6 30.52S HAVELOCK SUNNY 64 48 56 VRB5 30.54S KENANSVILLE SUNNY 59 43 55 S5 30.52S KINSTON SUNNY 59 37 44 S5 30.53S NEW BERN SUNNY 59 46 62 VRB3 30.54F RICHLANDS SUNNY 61 47 59 S8 30.53S ROCKY MOUNT SUNNY 56 43 61 S6 30.52F WASHINGTON SUNNY 56 39 52 S5 30.53F WHITEVILLE SUNNY 62 46 55 SE5 30.51S $$ AMZ130-135-150-152-154-156-158-170-250-252-270-ANZ085-086-088-633-658-670-241600- MARINE OBSERVATIONS STATION/POSITION TIME TEMP WIND PRES WAVE SWELL AIR SEA DIR/SP/G HT/PER HT/PER (UTC) (F) (DEG/KT/KT) (MB) (FT/S) (FT/S) CHESAPEAKE LIGHT NOT AVBL 64 E VA BEACH 1450 51 48 150/ 6/ 6 1033.8 3/ 9 3/ 9 DUCK 1448 49 47 130/ 6/ 7 1033.3 2 E DUCK 1500 48 N/A 3/ 8 2/11 OREGON INLET 1442 53 48 110/ 5/ 8 1033.9 13E OREGON INLT NOT AVBL HATTERAS CG 1442 60 52 200/ 4/ 8 1033.7 DIAMOND BUOY 1450 61 75 180/ 14/ 16 1034.3 5/ 8 5/ 8 CAPE LOOKOUT 1500 59 130/ 2/ 3 1033.5 BEAUFORT LAB 1448 60 50 150/ 5/ 7 1032.9 30 SE NEW RVR IN 1408 64 190/ 8/ 12 1033.7 30 SE NEW RVR IN 1443 68 N/A 3/10 2/11 27 SE WRIGHTSVLE 1408 63 62 160/ 6/ 10 1033.2 5 SE WRIGHTSVLE 1408 53 56 50/ 8/ 12 1033.6 225 S CAPE HAT 1450 63 73 70/ 14/ 19 1033.3 6/10 5/10 41 SE CHARLESTON 1450 68 71 120/ 14/ 17 1031.5 5/ 6 3/ 8 $$

USA.gov is the U.S. government's official web portal to all federal, state and local government web resources and services.